Regional Weather Roundup
Issued by NWS Newport/Morehead, NC

Current Version | Previous Version | Graphics & Text | Print | Product List | Glossary On
Versions: 1 2 3 4 5 6 7 8 9 10 11 12 13 14 15 16 17 18 19 20 21 22 23 24 25 26 27 28 29 30 31 32 33 34 35 36 37 38 39 40 41 42 43 44 45 46 47 48 49 50
000 ASUS42 KMHX 300813 RWRMHX WEATHER ROUNDUP FOR EASTERN NORTH CAROLINA NATIONAL WEATHER SERVICE NEWPORT/MOREHEAD CITY NC 400 AM EDT THU JUL 30 2015 NOTE: "FAIR" INDICATES FEW OR NO CLOUDS BELOW 12,000 FEET WITH NO SIGNIFICANT WEATHER AND/OR OBSTRUCTIONS TO VISIBILITY NCZ015>017-031-032-045>047-102-103-300900- NORTH COAST CITY SKY/WX TMP DP RH WIND PRES REMARKS EDENTON CLEAR 74 71 91 CALM 29.95F ELIZABETH CITY CLEAR 74 72 93 SE3 29.95F KITTY HAWK SUNNY 77 72 86 SE3 29.94F MANTEO CLEAR 77 74 91 E3 29.95F $$ NCZ045>047-081-094-103-104-300900- CENTRAL COAST CITY SKY/WX TMP DP RH WIND PRES REMARKS FRISCO PTCLDY 80 75 84 S12 29.94F SWANQUARTER N/A 75 N/A N/A NE5 29.91S $$ NCZ095-097-098-100-101-300900- SOUTHERN COAST CITY SKY/WX TMP DP RH WIND PRES REMARKS BEAUFORT PTCLDY 78 77 96 N6 29.92F CEDAR ISLAND N/A 82 N/A N/A NE6 29.97S JACKSONVILLE CLEAR 74 71 91 N3 29.93F PINEY ISLAND MOSUNNY N/A N/A N/A MISG 29.92F WILMINGTON CLEAR 73 71 93 CALM 29.94S $$ NCZ011>013-027>030-043-044-078>080-089-090>093-098-300900- COASTAL PLAIN CITY SKY/WX TMP DP RH WIND PRES REMARKS AHOSKIE CLEAR 70 68 94 CALM 29.96S CLINTON CLEAR 72 72 99 CALM 29.96F ELIZABETHTOWN CLEAR 73 72 96 CALM 29.96S GOLDSBORO CLEAR 73 71 96 CALM 29.94F GREENVILLE CLEAR 72 70 94 CALM 29.97F HAVELOCK PTCLDY 78 75 90 N7 29.94F KENANSVILLE CLEAR 69 68 96 CALM 29.96F KINSTON CLEAR 70 69 96 CALM 29.96S NEW BERN CLEAR 75 72 90 CALM 29.95F RICHLANDS CLEAR 70 64 83 CALM 29.94F ROCKY MOUNT CLEAR 71 69 93 CALM 29.96F WASHINGTON CLEAR 70 69 96 CALM 29.95F WHITEVILLE CLEAR 73 71 93 CALM 29.95S $$ AMZ130-135-150-152-154-156-158-170-250-252-270-ANZ085-086-088-633-658-670-300900- MARINE OBSERVATIONS STATION/POSITION TIME TEMP WIND PRES WAVE SWELL AIR SEA DIR/SP/G HT/PER HT/PER (UTC) (F) (DEG/KT/KT) (MB) (FT/S) (FT/S) CHESAPEAKE LIGHT 0800 79 160/ 12/ 13 1015.0 64 E VA BEACH 0750 80 81 120/ 8/ 8 1014.3 3/ 6 3/ 6 DUCK 0700 76 65 N/A 2 E DUCK 0711 74 N/A 2/ 6 OREGON INLET 0700 79 79 N/A 13E OREGON INLT 0800 81 N/A 3/ 5 HATTERAS CG 0700 81 83 N/A DIAMOND BUOY 0750 83 85 170/ 12/ 14 1013.9 3/ 7 3/ 7 CAPE LOOKOUT 0800 81 90/ 6/ 6 1012.6 BEAUFORT LAB 0700 78 82 N/A 30 SE NEW RVR IN NOT AVBL 27 SE WRIGHTSVLE 0700 78 82 40/ 8/ 10 N/A 5 SE WRIGHTSVLE 0708 79 82 20/ 8/ 12 1013.6 225 S CAPE HAT 0750 82 81 180/ 14/ 16 1014.5 8/ 8 7/ 8 41 SE CHARLESTON 0750 82 84 10/ 10/ 12 1012.3 3/ 7 3/ 7 $$

USA.gov is the U.S. government's official web portal to all federal, state and local government web resources and services.